Regional Weather Roundup
Issued by NWS Wakefield, VA

Home | Current Version | Previous Version | Graphics & Text | Print | Product List | Glossary On
Versions: 1 2 3 4 5 6 7 8 9 10 11 12 13 14 15 16 17 18 19 20 21 22 23 24 25 26 27 28 29 30 31 32 33 34 35 36 37 38 39 40 41 42 43 44 45 46 47 48 49 50
000
ASUS41 KAKQ 070215
RWRAKQ

REGIONAL WEATHER ROUNDUP
NATIONAL WEATHER SERVICE WAKEFIELD VA
1000 PM EDT MON JUL 06 2015

Note: "fair" indicates few or no clouds below 12,000 feet with no
significant weather and/or obstructions to visibility. * = Denotes
station may not report precipitation (e.g., rain,snow,etc.),
thunder or fog.

VAZ042-051-052>054-056-070300-
NORTHERN VIRGINIA

CITY           SKY/WX    TMP DP  RH WIND       PRES   REMARKS
WASH NATIONAL  MOCLDY    79  72  79 SE5       30.03S
DULLES         PTCLDY    73  72  96 S5        30.02S
FORT BELVOIR   CLEAR     74  72  93 SE6       30.02S
QUANTICO       MOCLDY    79  72  78 SW7       30.00R
FREDERICKSBRG* PTCLDY    76  76  99 S6        30.03R
STAFFORD*      PTCLDY    74  71  89 CALM      30.07R
WARRENTON      PTCLDY    75  73  93 CALM      30.03R
CULPEPER*      PTCLDY    73  71  93 CALM      30.04R
MANASSAS*      CLEAR     75  73  94 CALM      30.03R
LEESBURG*      CLEAR     77  75  94 E8        30.03S
WINCHESTER     PTCLDY    72  70  94 CALM      30.03S
FRONT ROYAL*   FAIR      72  70  94 CALM      30.03R
LURAY*         FAIR      75  72  88 CALM      30.04S
$$

VAZ048-049-060>072-079>083-070300-
CENTRAL AND SOUTH CENTRAL VIRGINIA

CITY           SKY/WX    TMP DP  RH WIND       PRES   REMARKS
RICHMOND       PTCLDY    75  72  90 E5        30.05R
CHESTERFIELD*  NOT AVBL
PETERSBURG*      N/A     74  74 100 CALM      30.06R FOG
HANOVER        FOG       71  71 100 CALM      30.06R VSB 3/4
TAPPAHANNOCK*  CLEAR     74  70  89 CALM      30.06R
QUINTON*       NOT AVBL
CHARLOTTSVILLE CLEAR     74  71  91 CALM      30.04S
GORDONSVILLE*  FAIR      72  70  94 CALM      30.04R
ORANGE*        CLEAR     73  72  94 CALM      30.06R FOG
LOUISA*        CLEAR     72  70  94 CALM      30.04S
BUMPASS*       FAIR      71  69  96 SE3       30.04S
FARMVILLE*     CLEAR     73  73 100 S3        30.04S
CREWE*         FAIR      70  69  95 CALM      30.05S
FORT PICKETT*  FAIR      73  72  98 CALM      30.05S
CHASE CITY*    MOCLDY    76  75  95 CALM      30.06S
CLARKSVILLE*   CLOUDY    73  72  94 S6        30.06S
SOUTH HILL*    CLEAR     74  72  95 CALM      30.11S
LAWRENCEVILLE* NOT AVBL
EMPORIA*         N/A     73  72  94 CALM      30.07R
$$

VAZ088>098-070300-
SOUTHEAST VIRGINIA

CITY           SKY/WX    TMP DP  RH WIND       PRES   REMARKS
NORFOLK        MOCLDY    80  73  79 SW10      30.07R
VIRGINIA BEACH PTCLDY    81  74  79 S6        30.07R
NORFOLK NAVAL  TSTM      74  70  87 W5        30.09R FOG
WEST POINT*    PTCLDY    75  73  91 CALM      30.07R
SALUDA*        FAIR      76  73  90 E3        30.05S
NEWPORT NEWS   MOCLDY    75  72  90 S8        30.06S
LANGLEY AFB    MOCLDY    75  72  88 S8        30.04F
FORT EUSTIS    PTCLDY    77  77 100 S8        30.04R
WILLIAMSBURG*  PTCLDY    81  73  78 S5        30.07R
HR EXEC AP*    CLOUDY    75  70  83 NW7       30.10R THUNDER
FRANKLIN*      TSTM      74  67  78 NW17G32   30.06R VSB 1
WAKEFIELD      PTCLDY    77  72  84 CALM      30.06R
$$

VAZ020-022-025-037-045-070300-
WEST CENTRAL AND SOUTHWEST VIRGINIA

CITY           SKY/WX    TMP DP  RH WIND       PRES   REMARKS
STAUNTON*      MOCLDY    74  70  87 CALM      30.08S
WAYNESBORO*    FAIR      70  67  91 CALM      30.09R
HOT SPRINGS VA PTCLDY    65  65 100 W13       30.18S
LYNCHBURG      MOCLDY    68  67  96 SW3       30.09S
DANVILLE       MOCLDY    76  71  85 CALM      30.07R
SOUTH BOSTON*  MOCLDY    74  69  83 MISG      30.07R
MARTINSVILLE   MOCLDY    73  73 100 CALM      30.11S
ROANOKE        PTCLDY    73  66  78 CALM      30.10F
BLACKSBURG     PTCLDY    68  66  93 SW3       30.17S
DUBLIN*        CLEAR     70  68  94 S3        30.15S
MARION*        CLEAR     67  65  94 CALM      30.19S FOG
HILLSVILLE*    CLEAR     66  63  89 SW5       30.17R
RICHLANDS*     FAIR      68  65  90 S5        30.17S
WISE*          CLEAR     68  64  88 S3        30.18R
ABINGDON*      CLEAR     69  68  96 CALM      30.15R
$$

MDZ021>025-VAZ099-100-070300-
SOUTHERN MARYLAND AND THE DELMARVA PENINSULA

CITY           SKY/WX    TMP DP  RH WIND       PRES   REMARKS
PATUXENT RIVER CLOUDY    74  71  91 S7        30.05R
BAY BRIDGE APT   N/A     79  70  73 S12       30.03S
LEONARDTOWN    PTCLDY    72  68  88 CALM      30.07R
DOVER          PTCLDY    76  76 100 SE8       30.04R
GEORGETOWN     MOCLDY    76  74  93 S7        30.08R
EASTON         RAIN      80  71  72 SW9G23    30.09R
CAMBRIDGE      CLOUDY    79  68  69 S3        30.05S
SALISBURY      CLOUDY    76  73  91 SE6       30.07R
OCEAN CITY     PTCLDY    77  74  90 S5        30.08S
WALLOPS ISLAND PTCLDY    77  76  96 S15       30.08R
ACCOMACK*      PTCLDY    77  77 100 S7        30.07R
$$

NCZ012>017-030>032-070300-
NORTH CENTRAL AND EASTERN NORTH CAROLINA

CITY           SKY/WX    TMP DP  RH WIND       PRES   REMARKS
ROANOKE RAPIDS FAIR      73  72  94 CALM      30.05S
RALEIGH        PTCLDY    79  67  66 SW7       30.07S
ELIZABETH CITY CLEAR     79  75  87 S7        30.08R
AHOSKIE*       CLEAR     78  72  80 S6        30.06S
EDENTON*         N/A     80  71  75 S10       30.08R
CURRITUCK*     CLEAR     80  73  79 S3        30.08S
KILL DEVIL HLS CLEAR     79  73  82 S6        30.08S
MANTEO         CLEAR     80  73  81 SW16      30.10R
CAPE HATTERAS  PTCLDY    78  75  90 SW9       30.11S
TARBORO*         N/A     81  73  75 S5        30.07S
GOLDSBORO      PTCLDY    80  71  74 S2        30.06R
WASHINGTON     CLEAR     78  72  81 S6        30.08S
GREENVILLE     PTCLDY    81  73  78 SW9       30.09R
NEW BERN       CLEAR     78  73  84 S9        30.10S
WILMINGTON     CLEAR     79  73  82 SW7       30.09F
$$

VAZ048-070300-
ELSEWHERE

CITY           SKY/WX    TMP DP  RH WIND       PRES   REMARKS
HARRISBURG PA  MOCLDY    73  68  84 SE5       30.03R
BALTIMORE      MOCLDY    72  71  97 CALM      30.02F THUNDER
ANNAPOLIS      MOCLDY    79  73  82 S7        30.02S
ANDREWS AFB    CLEAR     73  73  99 SE5       30.03R
PHILADELPHIA   MOCLDY    79  71  76 SE14      30.08R
HENDERSON NC   MOCLDY    75  69  79 CALM      30.07S
GREENSBORO     MOCLDY    76  65  68 S9        30.09R
ROCKY MOUNT    PTCLDY    80  72  76 SE5       30.06R
$$

VAZ100-070300-
MARINE

STATION/POSITION TIME  TEMP    WIND        PRES    WAVE   SWELL
                       AIR SEA DIR/SP/G            HT/PER HT/PER
                 (UTC) (F)     (DEG/KT/KT) (MB)    (FT/S) (FT/S)
BRANDYWINE LGT   0100   75 75  150/ 18/ 21 1018.0F
CAPE MAY NJ      0100   76 78  120/  9/ 13 1017.9F
LEWES DE         0100   76 74  150/  9/ 12 1017.9F
15NM E FENWICK I 0150   76 76              1018.4R   2/ 5
OCEAN-CITY-INLET 0100   77 79  180/ 10/ 12 1018.1S
WACHAPREAGUE VA  0100   79 85  200/ 10/ 12 1018.1R
THOMAS POINT MD  0200   78 78              1017.2R
GOOSES REEF MD   0200   78 79  200/ 12/ 14 1018.2R
COVE POINT MD    0100   74     200/ 12/ 14 1017.8R
SOLOMONS ISLAND  0100      81                N/A
BISHOPS HEAD MD  0100   78     260/ 10/ 13 1017.4R
PINEY POINT MD   0100          190/ 14/ 16   N/A
CAMBRIDGE MD     0100   80 80  190/ 10/ 16 1017.4R
LEWISETTA VA     0100   76 83  210/  5/  6 1017.0F
RAPPAHANNOCK LGT 0100          140/ 11/ 12 1018.1S
STINGRAY PT      0200   81 81  160/ 12/ 14 1017.7R   2/ 3
YORK RVR RNG VA  0100   77     220/ 22/ 26 1016.9S
YORKTOWN VA      0100   79 81  190/  9/ 14 1017.2R
JAMESTOWN VA     0200   78 83  170/ 10/ 12   N/A
DOMINION TERM VA 0100   81     250/  9/ 11 1017.8R
KIPTOPEKE VA     0100      84  190/ 12/ 13   N/A
CHES BAY BRIDGE  0100   80 80  160/ 10/ 12 1017.5R
CAPE HENRY VA    0100   78     170/  7/  9   N/A
CHESAPEAKE LGHT  0100   79     180/ 16/ 18 1018.4F
WILLOUBY STN VA  0100   81     180/ 11/ 13 1018.7R
CAPE HENRY BUOY  0128      78                N/A     3/ 9
1ST LANDING BUOY 0200      78              1017.8R   1/ 4
CAPE CHARLES BUO 0126      77                N/A     3/ 8   2/ 8
OFFSHORE WE BUOY 0111      78                N/A     3/ 9   2/ 9
64NM E OF VA BCH 0150   78 77  180/ 12/ 16 1018.9R   3/ 5   2/ 8
DUCK PIER NC     0100   80 76  180/ 15/ 21   N/A
44100 DUCK FRF   0124      78                N/A     3/ 8
44056 DUCK FRF   0111      76                N/A     3/ 4   2/13
OREGON INLET NC  0100   81 83  180/ 17/ 21 1019.0F
HATTERAS NC      0100   80 81  190/  5/  9 1019.0F
DIAMOND SHLS NC  0150   80 81  200/ 17/ 19 1019.1F   3/ 4   2/ 9
CAPE LOOKOUT NC  0200   80     200/ 10/ 15 1019.1R
$$



USA.gov is the U.S. government's official web portal to all federal, state and local government web resources and services.